Tracking 18980 objects as of 19-Feb-2018
HD Live streaming from Space Station
objects crossing your sky now

FENGYUN 1C DEB

Track FENGYUN 1C DEB now!
10-day predictions


NORAD ID: 30665
Int'l Code: 1999-025APX
Perigee: 840.4 km
Apogee: 965.8 km
Inclination: 99.0 °
Period: 102.9 minutes
Semi major axis: 7274 km
RCS: 0.026 m2 (small)
Launch date: May 10, 1999
Source: People's Republic of China (PRC)
Launch site: Taiyaun Space Center, China (TSC)

Note: This is SATELLITE DEBRIS
aabbcc
Your satellite tracking list
Your tracking list is empty




NASA's NSSDC Master Catalog

Two Line Element Set (TLE):
1 30665U 99025APX 18050.30839227 +.00000463 +00000-0 +33704-3 0  9996
2 30665 099.0406 340.5784 0086190 168.2586 344.1624 13.99380296559598
Source of the keplerian elements: AFSPC